Athens, GA

3:45 PM EDT on April 23, 2018 (GMT -0400)
Athens / Epps

Weather History for KAHN - May, 2013

Change the Weather History Date:

Thursday, May 16, 2013

  Actual Average Record
Temperature  
Mean Temperature 73 °F 70 °F  
Max Temperature 84 °F 82 °F 94 °F (1933)
Min Temperature 62 °F 58 °F 41 °F (1973)
Cooling Degree Days 8 6  
Month to date cooling degree days 29 68  
Year to date cooling degree days 71 126  
Growing Degree Days 23 (Base 50)    
Moisture  
Dew Point 58 °F    
Average Humidity 63    
Maximum Humidity 78    
Minimum Humidity 47    
Precipitation  
Precipitation 0.00 in 0.09 in 0.89 in (1942)
Month to date precipitation 3.33 1.59  
Year to date precipitation 22.78 17.70  
Sea Level Pressure  
Sea Level Pressure 30.03 in    
Wind  
Wind Speed 3 mph (WSW)    
Max Wind Speed 8 mph    
Max Gust Speed 14 mph    
Visibility 9 miles    
Events      
T = Trace of Precipitation, MM = Missing Value Source: NWS Daily Summary

Daily Weather History Graph

Daily Weather History Graph

Search for Another Location

Airport or City:

Astronomy

May. 16, 2013 Rise Set
Actual Time 6:31 AM EDT 8:28 PM EDT
Civil Twilight 6:03 AM EDT 8:56 PM EDT
Nautical Twilight 5:29 AM EDT 9:30 PM EDT
Astronomical Twilight 4:53 AM EDT 10:06 PM EDT
Moon 11:58 AM EDT (5/16) 12:53 AM EDT (5/16)
Length of Visible Light 14h 53m
Length of Day
13h 57m
Waxing Crescent, 35% of the Moon is Illuminated
May 16
Waxing Crescent
May 18
First Quarter
May 25
Full
May 31
Last Quarter
Jun 8
New

Hourly Weather History & Observations

Time (EDT) Temp. Heat Index Dew Point Humidity Pressure Visibility Wind Dir Wind Speed Gust Speed Precip Events Conditions
12:51 AM 66.9 °F - 55.9 °F 68% 30.03 in 10.0 mi WSW 3.5 mph - N/A   Clear
1:51 AM 66.9 °F - 55.0 °F 66% 30.01 in 10.0 mi West 3.5 mph - N/A   Clear
2:51 AM 64.9 °F - 55.0 °F 70% 30.01 in 10.0 mi Calm Calm - N/A   Clear
3:51 AM 64.0 °F - 55.0 °F 73% 30.00 in 10.0 mi Calm Calm - N/A   Clear
4:51 AM 63.0 °F - 55.0 °F 75% 30.00 in 9.0 mi Calm Calm - N/A   Clear
5:51 AM 62.6 °F - 55.4 °F 77% 30.03 in 9.0 mi Calm Calm - N/A   Clear
6:51 AM 63.0 °F - 55.0 °F 75% 30.03 in 7.0 mi Calm Calm - N/A   Clear
7:51 AM 64.9 °F - 57.9 °F 78% 30.05 in 7.0 mi Calm Calm - N/A   Clear
8:51 AM 66.9 °F - 59.0 °F 76% 30.07 in 7.0 mi Variable 4.6 mph - N/A   Clear
9:51 AM 68.0 °F - 60.1 °F 76% 30.08 in 8.0 mi WSW 4.6 mph - N/A   Clear
10:51 AM 70.0 °F - 62.1 °F 76% 30.09 in 7.0 mi WSW 4.6 mph - N/A   Clear
11:51 AM 72.0 °F - 62.1 °F 71% 30.09 in 8.0 mi SW 5.8 mph - N/A   Clear
12:51 PM 75.9 °F - 60.1 °F 58% 30.07 in 9.0 mi Variable 4.6 mph - N/A   Clear
1:51 PM 81.0 °F 81.7 °F 61.0 °F 50% 30.05 in 9.0 mi Variable 5.8 mph - N/A   Clear
2:51 PM 82.9 °F 83.3 °F 61.0 °F 47% 30.03 in 9.0 mi West 5.8 mph - N/A   Partly Cloudy
3:51 PM 82.0 °F 82.7 °F 61.0 °F 49% 30.01 in 9.0 mi Calm Calm - N/A   Partly Cloudy
4:51 PM 82.0 °F 82.7 °F 61.0 °F 49% 30.00 in 8.0 mi Variable 4.6 mph - N/A   Mostly Cloudy
5:51 PM 82.0 °F 82.7 °F 61.0 °F 49% 30.00 in 9.0 mi Variable 4.6 mph - N/A   Partly Cloudy
6:51 PM 79.0 °F - 60.1 °F 52% 29.99 in 9.0 mi Variable 5.8 mph - N/A   Clear
7:51 PM 75.9 °F - 57.9 °F 54% 30.00 in 9.0 mi Variable 5.8 mph - N/A   Clear
8:51 PM 72.0 °F - 57.9 °F 61% 30.01 in 10.0 mi Calm Calm - N/A   Clear
9:51 PM 68.0 °F - 55.9 °F 65% 30.03 in 10.0 mi Calm Calm - N/A   Clear
10:51 PM 66.0 °F - 55.9 °F 70% 30.04 in 10.0 mi Calm Calm - N/A   Clear
11:51 PM 64.9 °F - 53.1 °F 65% 30.04 in 10.0 mi Calm Calm - N/A   Clear